Vorticity
3 6 7 8 17 29 36 32 38 44 48 44 28 27 30 27 22 18 20 26 35 37 36 41 36 28 22
-5 2 16 26 41 32 43 41 34 23 18 10 19 27 25 12 19 19 17 14 18 28 33 31 37 32 30
3 21 42 41 42 41 34 16 8 19 20 14 4 4 7 14 12 3 16 20 16 14 18 28 37 33 32
30 47 37 46 32 5 9 19 11 10 10 18 16 11 14 14 21 17 22 9 21 22 13 13 17 19 20
42 36 40 18 3 28 13 17 16 14 14 8 11 12 10 18 13 16 28 26 14 5 6 14 15 11 10
36 38 10 13 24 8 20 15 15 8 5 18 9 17 15 5 7 22 13 26 19 23 7 4 15 26 22
39 5 23 22 13 15 13 14 12 7 10 12 9 15 13 15 22 36 16 14 19 26 11 14 26 28 25
1 18 12 10 13 10 12 15 11 7 13 8 15 14 18 18 30 37 21 25 19 16 12 18 13 3 4
12 12 8 11 9 11 10 11 13 8 9 7 20 15 14 29 17 22 19 12 12 6 15 9 16 13 10
20 6 5 6 4 6 7 7 8 12 3 10 19 19 28 8 5 10 10 7 7 10 10 18 14 16 10
5 11 5 8 10 11 8 9 8 11 6 10 20 16 4 4 2 1 6 8 8 17 16 14 27 27 17
13 13 15 13 13 15 13 13 10 10 10 8 20 15 2 3 9 15 3 7 14 3 16 8 19 15 14
11 7 7 9 8 11 14 13 14 12 12 6 20 6 -0 1 8 7 8 13 14 14 21 35 22 11 19
20 19 15 13 12 11 14 15 16 10 6 12 13 13 6 -1 9 4 6 15 17 8 10 17 10 11 9
16 21 25 24 18 12 14 15 15 16 8 11 6 17 4 10 7 7 9 21 11 26 23 10 8 16 19
21 14 18 24 19 14 13 14 12 13 14 13 6 12 6 1 9 4 22 4 17 11 16 9 12 25 25
19 18 12 13 17 16 16 14 16 15 18 10 13 10 10 5 6 6 27 10 25 32 4 8 12 24 28
Height
5520 5505 5485 5463 5446 5423 5401 5387 5377 5366 5359 5354 5349 5345 5340 5335 5329 5322 5314 5305 5298 5293 5291 5292 5296 5302 5313
5496 5476 5452 5432 5411 5395 5379 5364 5354 5350 5343 5336 5333 5328 5323 5317 5310 5302 5295 5288 5281 5275 5270 5272 5272 5277 5287
5462 5444 5422 5402 5389 5375 5365 5355 5346 5339 5330 5326 5320 5313 5308 5302 5295 5289 5282 5275 5267 5262 5258 5256 5256 5260 5266
5419 5407 5394 5382 5371 5363 5357 5344 5337 5328 5321 5316 5308 5300 5293 5285 5281 5275 5269 5263 5257 5252 5248 5246 5245 5247 5250
5396 5383 5373 5367 5359 5351 5344 5338 5326 5318 5312 5307 5298 5289 5280 5273 5264 5258 5254 5249 5246 5242 5239 5237 5235 5236 5237
5378 5369 5362 5355 5347 5341 5334 5328 5323 5309 5305 5300 5286 5281 5270 5262 5255 5248 5242 5235 5230 5228 5227 5226 5223 5221 5222
5365 5357 5351 5343 5338 5333 5326 5320 5312 5303 5298 5293 5278 5270 5259 5251 5242 5234 5228 5222 5219 5217 5218 5216 5212 5210 5210
5352 5347 5341 5335 5329 5323 5317 5314 5307 5296 5289 5281 5271 5259 5250 5241 5232 5225 5219 5217 5215 5213 5211 5208 5206 5205 5204
5344 5338 5331 5324 5318 5314 5310 5304 5300 5289 5281 5272 5263 5255 5245 5237 5229 5222 5218 5215 5212 5208 5205 5202 5199 5196 5196
5335 5329 5322 5316 5309 5303 5298 5294 5290 5285 5274 5267 5258 5253 5245 5237 5230 5223 5217 5213 5209 5204 5200 5196 5192 5188 5187
5328 5322 5315 5309 5303 5296 5289 5283 5280 5275 5266 5261 5254 5247 5242 5236 5228 5221 5215 5209 5203 5196 5190 5184 5180 5175 5173
5319 5313 5307 5301 5295 5288 5282 5276 5269 5268 5262 5255 5250 5245 5240 5233 5226 5220 5212 5203 5195 5187 5181 5173 5167 5163 5161
5311 5304 5298 5292 5287 5282 5275 5270 5263 5260 5256 5250 5245 5241 5236 5230 5224 5216 5208 5201 5190 5182 5175 5167 5160 5154 5149
5301 5294 5288 5282 5277 5274 5269 5264 5259 5252 5249 5246 5240 5237 5232 5225 5220 5212 5203 5193 5188 5178 5170 5163 5156 5148 5139
5291 5284 5277 5272 5267 5265 5260 5256 5252 5250 5244 5239 5236 5233 5229 5224 5218 5209 5201 5194 5185 5176 5169 5162 5151 5141 5131
5285 5279 5272 5266 5262 5257 5253 5250 5247 5243 5239 5236 5233 5228 5225 5220 5215 5209 5200 5193 5185 5177 5169 5161 5153 5143 5131
5282 5275 5269 5263 5258 5253 5249 5245 5241 5237 5234 5231 5229 5227 5224 5220 5214 5207 5200 5193 5185 5178 5172 5166 5160 5149 5138